Cold Bay, AK

7:49 AM AKST on January 22, 2018 (GMT -0900)
Cold Bay

Weather History for PACD - July, 2013

Change the Weather History Date:

Saturday, July 6, 2013

  Actual Average Record
Temperature  
Mean Temperature 48 °F 50 °F  
Max Temperature 51 °F 54 °F 67 °F (2014)
Min Temperature 45 °F 45 °F 39 °F (1956)
Degree Days  
Heating Degree Days 17 15  
Month to date heating degree days 92 93  
Since 1 June heating degree days 601 654  
Since 1 July heating degree days 92 93  
Cooling Degree Days 0 0  
Month to date cooling degree days 0 0  
Year to date cooling degree days 0 0  
Since 1 June cooling degree days 0 0  
Moisture  
Dew Point 44 °F    
Average Humidity 90    
Maximum Humidity 96    
Minimum Humidity 80    
Precipitation  
Precipitation 0.20 in 0.07 in 0.85 in (1982)
Month to date precipitation 0.72 0.45  
Year to date precipitation 18.48 17.03  
Snow  
Snow 0.00 in 0.00 in - ()
Month to date snowfall 0.0 0.0  
Since 1 June snowfall 0.0 T  
Since 1 July snowfall 0.0 0.0  
Snow Depth 0.00 in    
Sea Level Pressure  
Sea Level Pressure 29.68 in    
Wind  
Wind Speed 21 mph (SW)    
Max Wind Speed 32 mph    
Max Gust Speed 40 mph    
Visibility 7 miles    
Events Rain    
T = Trace of Precipitation, MM = Missing Value Source: NWS Daily Summary

Daily Weather History Graph

Daily Weather History Graph

Search for Another Location

Airport or City:

Trip Planner

Search our weather history database for the weather conditions in past years. The results will help you decide how hot, cold, wet, or windy it might be!

Date:

Astronomy

Jul. 06, 2013 Rise Set
Actual Time 6:20 AM AKDT 11:30 PM AKDT
Civil Twilight 5:23 AM AKDT 12:26 AM AKDT
Nautical Twilight 3:18 AM AKDT 2:26 AM AKDT
Astronomical Twilight Sun does not rise Sun does not rise
Moon 5:27 AM AKDT (7/6) 10:07 PM AKDT (7/6)
Length of Visible Light 19h 03m
Length of Day
17h 10m
Waning Crescent, 2% of the Moon is Illuminated
Jul 6
Waning Crescent
Jul 7
New
Jul 15
First Quarter
Jul 22
Full
Jul 29
Last Quarter

Hourly Weather History & Observations

Time (AKDT) Temp. Windchill Dew Point Humidity Pressure Visibility Wind Dir Wind Speed Gust Speed Precip Events Conditions
12:25 AM 46.4 °F 37.0 °F 44.6 °F 93% 29.77 in 10.0 mi SSE 31.1 mph 40.3 mph N/A   Overcast
12:51 AM 46.4 °F 38.3 °F 44.6 °F 93% 29.78 in 6.0 mi SE 23.0 mph 32.2 mph N/A   Overcast
12:53 AM 46.9 °F - 45.0 °F 93% 29.79 in 6.0 mi SE 21.9 mph 32.2 mph N/A   Overcast
1:26 AM 46.4 °F 38.5 °F 44.6 °F 93% 29.77 in 10.0 mi SE 21.9 mph 34.5 mph N/A   Overcast
1:53 AM 46.0 °F 36.9 °F 44.1 °F 93% 29.76 in 10.0 mi SE 28.8 mph 36.8 mph N/A   Overcast
2:46 AM 46.4 °F 37.4 °F 44.6 °F 93% 29.75 in 7.0 mi SE 28.8 mph 39.1 mph 0.00 in Rain Rain
2:53 AM 46.0 °F 36.7 °F 45.0 °F 96% 29.74 in 7.0 mi SE 29.9 mph 39.1 mph 0.03 in Rain Rain
3:53 AM 46.9 °F - 45.0 °F 93% 29.73 in 10.0 mi SE 25.3 mph 36.8 mph 0.10 in Rain Light Rain
4:10 AM 46.4 °F 37.9 °F 44.6 °F 93% 29.72 in 10.0 mi SE 25.3 mph 33.4 mph 0.01 in Rain Light Rain
4:53 AM 46.9 °F - 45.0 °F 93% 29.70 in 10.0 mi SE 19.6 mph 32.2 mph 0.02 in Rain Light Rain
5:06 AM 46.4 °F 38.7 °F 44.6 °F 93% 29.70 in 10.0 mi SE 20.7 mph 32.2 mph 0.01 in   Overcast
5:34 AM 46.4 °F 37.4 °F 44.6 °F 93% 29.69 in 10.0 mi SE 28.8 mph 34.5 mph 0.01 in Rain Light Rain
5:53 AM 46.9 °F - 45.0 °F 93% 29.69 in 10.0 mi SSE 23.0 mph 32.2 mph 0.02 in Rain Light Rain
6:53 AM 48.0 °F - 44.1 °F 86% 29.68 in 10.0 mi SSE 15.0 mph 21.9 mph 0.00 in   Overcast
7:53 AM 48.0 °F - 44.1 °F 86% 29.69 in 10.0 mi SSE 8.1 mph - N/A   Overcast
8:53 AM 48.9 °F - 44.1 °F 83% 29.68 in 10.0 mi Variable 5.8 mph - N/A   Overcast
9:49 AM 48.2 °F - 44.6 °F 87% 29.67 in 10.0 mi East 8.1 mph 16.1 mph N/A   Overcast
9:53 AM 48.9 °F - 45.0 °F 86% 29.68 in 10.0 mi ESE 11.5 mph 16.1 mph N/A   Overcast
10:44 AM 46.4 °F 41.5 °F 42.8 °F 87% 29.68 in 10.0 mi WNW 10.4 mph - N/A   Overcast
10:53 AM 46.9 °F - 43.0 °F 86% 29.68 in 10.0 mi NW 11.5 mph - N/A   Overcast
11:04 AM 46.4 °F 41.9 °F 42.8 °F 87% 29.68 in 10.0 mi NNW 9.2 mph - N/A   Overcast
11:53 AM 45.0 °F 41.2 °F 43.0 °F 93% 29.68 in 9.0 mi WNW 6.9 mph - N/A   Overcast
12:29 PM 46.4 °F 40.4 °F 44.6 °F 93% 29.68 in 6.0 mi WSW 13.8 mph - 0.00 in   Overcast
12:53 PM 46.9 °F - 44.1 °F 90% 29.67 in 7.0 mi WSW 15.0 mph - 0.00 in   Overcast
1:53 PM 50.0 °F - 44.1 °F 80% 29.66 in 10.0 mi West 19.6 mph - N/A   Overcast
2:53 PM 48.9 °F - 44.1 °F 83% 29.66 in 10.0 mi West 17.3 mph 21.9 mph 0.00 in   Overcast
3:22 PM 48.2 °F - 44.6 °F 87% 29.65 in 10.0 mi WSW 23.0 mph - 0.00 in Rain Light Rain
3:36 PM 48.2 °F - 44.6 °F 87% 29.66 in 3.0 mi South 9.2 mph 21.9 mph 0.01 in Rain Light Rain
3:53 PM 48.0 °F - 46.0 °F 93% 29.67 in 2.0 mi South 9.2 mph - 0.03 in Rain Light Rain
3:57 PM 48.2 °F - 46.4 °F 93% 29.67 in 3.0 mi WSW 11.5 mph - 0.00 in Rain Light Rain
4:04 PM 48.2 °F - 44.6 °F 87% 29.67 in 6.0 mi SW 15.0 mph 19.6 mph 0.00 in Rain Light Rain
4:53 PM 46.9 °F - 44.1 °F 90% 29.67 in 5.0 mi West 18.4 mph - 0.00 in Rain Light Rain
5:00 PM 46.4 °F 38.5 °F 44.6 °F 93% 29.66 in 5.0 mi West 21.9 mph 26.5 mph 0.01 in Rain Light Rain
5:53 PM 48.9 °F - 45.0 °F 86% 29.65 in 6.0 mi West 23.0 mph 27.6 mph 0.01 in Rain Light Rain
6:09 PM 48.2 °F - 44.6 °F 87% 29.65 in 10.0 mi WSW 23.0 mph 31.1 mph 0.00 in   Overcast
6:17 PM 48.2 °F - 44.6 °F 87% 29.65 in 10.0 mi West 24.2 mph - 0.00 in   Overcast
6:25 PM 46.4 °F 38.5 °F 42.8 °F 87% 29.66 in 10.0 mi WSW 21.9 mph 27.6 mph 0.00 in   Overcast
6:35 PM 46.4 °F 39.2 °F 42.8 °F 87% 29.66 in 10.0 mi WSW 18.4 mph - 0.00 in   Overcast
6:48 PM 46.4 °F 39.2 °F 42.8 °F 87% 29.66 in 4.0 mi West 18.4 mph 26.5 mph 0.00 in Rain Light Rain
6:53 PM 46.0 °F 38.3 °F 44.1 °F 93% 29.66 in 3.0 mi WSW 20.7 mph 27.6 mph 0.00 in Rain Light Rain
6:59 PM 46.4 °F 38.1 °F 44.6 °F 93% 29.66 in 2.5 mi WSW 24.2 mph 31.1 mph 0.00 in Rain Light Rain
7:06 PM 46.4 °F 38.7 °F 42.8 °F 87% 29.66 in 2.5 mi WSW 20.7 mph 31.1 mph 0.00 in Rain Light Rain
7:21 PM 46.4 °F 38.5 °F 42.8 °F 87% 29.66 in 5.0 mi WSW 21.9 mph - 0.01 in Rain Light Rain
7:53 PM 46.0 °F 37.4 °F 43.0 °F 89% 29.65 in 4.0 mi WSW 25.3 mph 31.1 mph 0.01 in Rain Light Rain
8:12 PM 46.4 °F 38.1 °F 42.8 °F 87% 29.66 in 8.0 mi WSW 24.2 mph 31.1 mph 0.00 in   Overcast
8:27 PM 46.4 °F 38.1 °F 42.8 °F 87% 29.65 in 2.0 mi West 24.2 mph 29.9 mph 0.00 in Rain Light Rain
8:45 PM 46.4 °F 38.7 °F 42.8 °F 87% 29.66 in 3.0 mi West 20.7 mph 31.1 mph 0.00 in Rain Light Rain
8:53 PM 45.0 °F 36.2 °F 43.0 °F 93% 29.67 in 5.0 mi West 24.2 mph - 0.00 in Rain Light Rain
9:53 PM 45.0 °F 36.2 °F 42.1 °F 90% 29.67 in 4.0 mi WSW 24.2 mph 31.1 mph 0.00 in Rain Light Rain
10:13 PM 44.6 °F 36.1 °F 42.8 °F 93% 29.67 in 2.0 mi West 21.9 mph 28.8 mph 0.01 in Rain Light Rain
10:38 PM 44.6 °F 35.7 °F 42.8 °F 93% 29.68 in 8.0 mi West 24.2 mph 31.1 mph 0.01 in   Overcast
10:53 PM 45.0 °F 36.4 °F 43.0 °F 93% 29.68 in 2.0 mi West 23.0 mph - 0.01 in Rain Light Rain
11:01 PM 44.6 °F 36.1 °F 42.8 °F 93% 29.68 in 1.8 mi West 21.9 mph 29.9 mph 0.01 in Rain Light Rain
11:11 PM 44.6 °F 35.7 °F 42.8 °F 93% 29.68 in 3.0 mi West 24.2 mph 28.8 mph 0.01 in Rain Light Rain
11:53 PM 45.0 °F 36.4 °F 42.1 °F 90% 29.69 in 5.0 mi West 23.0 mph - 0.02 in Rain Light Rain